Location: Unspecified
(41.1637°N, 24.2901°E)
Time: 01:49:49
(UTC+02:00)

ISS - Pass Details

Date: 14 January 2019
Orbit: 408 x 410 km, 51.6° (Epoch: 25 April)

Event Time Altitude Azimuth Distance (km) Brightness Sun altitude
Exits shadow 05:01:13 21° 197° (SSW) 983 -2.0 -19.4°
Drops below altitude 10° 05:02:58 10° 169° (S) 1,468 -0.7 -19.1°
Sets 05:05:16 0° 156° (SSE) 2,323 0.6 -18.7°
